STARLINK-34894, 65753

Orbit data source: Space-Track

STARLINK-34894, 65753 is a payload satellite owned by SpaceX/Seattle (US) in LEO that was launched on Thu, 25 Sep 2025 UTC via an FALCON 9 launch vehicle from the Air Force Eastern Test Range (AFETR). Payload-class satellites include a variety of spacecraft equipped with specific instruments for various scientific and technological missions. These include communications satellites like Starlink; space stations such as the ISS; scientific satellites like the Hubble; Earth observation satellites from companies like Planet Labs, Umbra, and HawkEye 360; GPS; miniature CubeSats for education and research; and military/defense satellites.

Loading next visibility...
Identifier
65753, 2025-216V
Orbit
LEO
Country
Flag of USUS
Related business
Manufacturer
SpaceX/Seattle
Mission
Operational Commercial Communications
Bus & Motor
STARLINK V2MO, Unknown motor
Mass
575 kg wet, ~530 kg dry
Launch date (UTC)
2025-09-25 (9 months ago)
Launch vehicle
FALCON 9
Launch site
Air Force Eastern Test Range (AFETR)
Object type
Payload
Rocket body
Debris
Shape & HBR
Box + 2 Pan, 17.7 m
Radar Cross Section
36.964 m², Large (>1 m²)

Expand to show TLE details & history
Last TLE update: 10 hours ago

TLE from 10 hours ago
0 STARLINK-34894
1 65753U 25216V   26171.42213272  .00010658  00000-0  37138-3 0  9997
2 65753  53.1563 215.6193 0001190  74.3825 285.7307 15.30206090 42248
Epoch: 2026-06-20T10:07Z
TLE epoch observation values (Epoch: 2026-06-20T10:07:52.267Z)
Latitude
-0.00005°
Longitude
155.0145°
Altitude
475.875 km
Speed
7.629 km/s
True Right ascension
14h 22m 28s
True Declination
0° 00' 00"
Sunlit
Object was in full shadow at epoch
Visualization orbit readout
Latitude
Unknown
Longitude
Unknown
Altitude
Unknown
Speed
Unknown
Apparent Right ascension
Unknown
Apparent Declination
Unknown
Sunlit
N/A
Visualization observer readout
Local Sidereal Time
07:13:41
Azimuth
Unknown
Elevation
Unknown
Doppler factor
Unknown
Orbital elements
Apogee altitude
476.269 km
Perigee altitude
474.638 km
Semi-major axis
6,853.591 km
Eccentricity
0.00012
Inclination
53.1563°
RAAN
215.6193°
Arg. of periapsis
74.3825°
True anomaly
285.71757°
Mean anomaly
285.7307°
Eccentric anomaly
285.72414°
Mean motion
3.8253 °/min
Orbital period
94.11 mins
BSTAR
0.00037138
Loading maneuver chart data...
Computing Atmospheric mass density...
Loading historical data...
Loading historical data...
Loading historical data...
Loading historical data...
Loading historical data...
Loading historical data...
Loading historical data...

Documentation

Showing up to 5 results
|